SEEDS II (CO-66)

Last updated on Sat Apr 26 2025 00:03:02 GMT+0000 (Coordinated Universal Time)

1 32791U 08021J 25115.42236543 .00020259 00000+0 10146-2 0 9997 2 32791 97.7251 94.5044 0003158 7.3465 352.7814 15.17415163923641
UTC large
Height (km)
Speed (km/s)
/
Latitude / Longitude
Inclination (degrees)
Orbital Period (minutes)
Azimuth
Elevation
Range (km)
Doppler Factor

Next 0 passes for location: London (51.5072 / 0.1276)

Sorry there are no passes over London.